This is the latest recevied weather packets stored in our database for station/object DK4DAX-2. If no packets are shown the sender has not sent any weather packets the latest 10 day(s).
| Time | Temp. | Humidity | Pressure | Rain* | Wind** | Luminosity | Snow |
|---|---|---|---|---|---|---|---|
| 1788066004 | 18.33° C | 71% | 1007.9 hPa | 0 mm | - | - | - |
| 1788065103 | 18.33° C | 73% | 1008 hPa | 0 mm | - | - | - |
| 1788064203 | 18.33° C | 73% | 1007.9 hPa | 0 mm | - | - | - |
| 1788063304 | 18.33° C | 76% | 1007.8 hPa | 0 mm | - | - | - |
| 1788062403 | 18.33° C | 77% | 1007.8 hPa | 0 mm | - | - | - |
| 1788061503 | 18.89° C | 76% | 1007.9 hPa | 0 mm | - | - | - |
| 1788060603 | 18.89° C | 75% | 1007.7 hPa | 0 mm | - | - | - |
| 1788059703 | 19.44° C | 78% | 1007.8 hPa | 0 mm | - | - | - |
| 1788058803 | 19.44° C | 84% | 1007.9 hPa | 0 mm | - | - | - |
| 1788057904 | 19.44° C | 84% | 1007.6 hPa | 0 mm | - | - | - |
| 1788057003 | 19.44° C | 84% | 1007.3 hPa | 0 mm | - | - | - |
| 1788056103 | 19.44° C | 85% | 1007.5 hPa | 0 mm | - | - | - |
| 1788055204 | 19.44° C | 85% | 1007.4 hPa | 0 mm | - | - | - |
| 1788054304 | 19.44° C | 84% | 1007.4 hPa | 0 mm | - | - | - |
| 1788053403 | 20° C | 82% | 1007.1 hPa | 0 mm | - | - | - |
| 1788052504 | 20.56° C | 75% | 1007.4 hPa | 0 mm | - | - | - |
| 1788051603 | 20.56° C | 72% | 1006.9 hPa | 0 mm | - | - | - |
| 1788050703 | 20.56° C | 72% | 1006.9 hPa | 0 mm | - | - | - |
| 1788049803 | 20.56° C | 73% | 1006.7 hPa | 0 mm | - | - | - |
| 1788048904 | 20.56° C | 72% | 1006.8 hPa | 0 mm | - | - | - |
| 1788048003 | 20.56° C | 72% | 1006.7 hPa | 0 mm | - | - | - |
| 1788047103 | 20.56° C | 72% | 1007 hPa | 0 mm | - | - | - |
| 1788046204 | 20.56° C | 72% | 1006.8 hPa | 0 mm | - | - | - |
| 1788045303 | 20.56° C | 72% | 1006.8 hPa | 0 mm | - | - | - |
| 1788044403 | 20.56° C | 72% | 1006.7 hPa | 0 mm | - | - | - |
* Rain latest hour (hover to see other rain measurements)
** Current wind speed in m/s (hover to see current wind gust speed)